[[{"header":{"parameterUnit":"m.s-1","parameterCategory":1,"la1":30.2991,"la2":30.254,"lo1":-89.0895,"lo2":-89.0444,"dy":0.0017,"dx":0.0017,"nx":28,"ny":28,"refTime":"2024-06-11T21:00:00:Z","depth":0,"parameterNumber":2,"parameterNumberName":"U-component_of_WINDS"},"data":[0,0,0,0,0,0,0,0,0,0,0,0,0,0,0,0,0,0,0,0,0,0,0,0,0,0,0,0,0,0,0,0,0,0,0,0,0,0,0,0,0,0,0,0,0,0,0,0,0,0,0,0,0,0,0,0,0,0,-2.065,-2.065,0,-2.0624,-2.0624,-2.0623,-2.0551,-2.0549,-2.0548,-2.0546,-2.0521,-2.0522,-2.0522,0,0,0,0,0,0,0,0,0,0,0,0,0,-2.064,-2.064,-2.065,-2.065,-2.0649,-2.0624,-2.0623,-2.0623,-2.0551,-2.0549,-2.0547,-2.0546,-2.0521,-2.0521,-2.0522,0,0,0,0,0,0,0,0,0,0,0,0,0,-2.0632,-2.0641,-2.065,-2.061,-2.0607,-2.0624,-2.0623,-2.0623,-2.0552,-2.0549,-2.0547,-2.0545,-2.052,-2.0521,-2.0522,-2.0577,0,0,-2.0526,-2.0527,0,0,0,0,0,0,0,0,-2.0633,-2.0633,-2.0617,-2.0613,-2.0609,-2.0588,-2.061,-2.0608,-2.0552,-2.0573,-2.0546,-2.0544,-2.0545,-2.0544,-2.0544,-2.0575,-2.0574,-2.0526,-2.0527,-2.0527,-2.0528,0,0,0,0,0,0,0,-2.0633,-2.0633,-2.064,-2.0617,-2.0612,-2.0595,-2.0591,-2.061,-2.0572,-2.0571,-2.0565,-2.0563,-2.0543,-2.0543,-2.0543,-2.0574,-2.0526,-2.0527,-2.0528,-2.0528,-2.065,-2.0652,0,0,0,0,0,0,-2.0639,-2.0634,-2.0641,-2.0639,-2.0615,-2.0597,-2.0592,-2.0597,-2.0572,-2.0566,-2.0565,-2.056,-2.0543,-2.0542,-2.0542,-2.0605,-2.0527,-2.0528,-2.0529,-2.0647,-2.065,-2.0653,0,0,0,0,0,0,-2.0639,-2.0641,-2.0642,-2.0635,-2.0634,-2.0599,-2.0605,-2.0598,-2.0599,-2.0568,-2.0561,-2.0573,-2.0541,-2.054,-2.0569,-2.0603,-2.0529,-2.053,-2.0644,-2.0648,-2.0652,-2.0731,0,0,0,0,0,0,-2.0639,-2.0641,-2.0661,-2.0636,-2.0635,-2.0669,-2.0607,-2.0599,-2.0601,-2.0594,-2.0573,-2.0567,-2.0539,-2.0568,-2.057,-2.0604,-2.0531,-2.0641,-2.0646,-2.065,-2.0726,-2.0737,-2.0748,0,0,0,0,0,-2.0639,-2.0684,-2.0662,-2.0663,-2.0658,-2.0671,-2.067,-2.0636,-2.0604,-2.0624,-2.0604,-2.0568,-2.0599,-2.0571,-2.0573,-2.0608,-2.0639,-2.0645,-2.065,-2.0721,-2.0735,-2.0747,0,0,0,0,0,0,-2.0714,-2.068,-2.0655,-2.0693,-2.0686,-2.0658,-2.0683,-2.0652,-2.0653,-2.0646,-2.0604,-2.06,-2.0635,-2.0624,-2.0593,-2.066,-2.0613,-2.0619,-2.0666,-2.0679,-2.069,-2.0693,-2.0532,0,0,0,0,0,-2.0735,-2.0747,-2.0717,-2.0753,-2.0751,-2.0718,-2.0721,-2.0696,-2.0686,-2.0682,-2.0665,-2.0657,-2.0665,-2.0671,-2.0677,-2.0723,-2.0719,-2.0748,-2.0759,-2.0768,-2.0775,-2.08,-2.0814,-2.0672,-2.0672,-2.0672,0,0,-2.0778,-2.0761,-2.0771,-2.0768,-2.0759,-2.0773,-2.0715,-2.0732,-2.0743,-2.0685,-2.0711,-2.0698,-2.0687,-2.0725,-2.0741,-2.0717,-2.0813,-2.0775,-2.0783,-2.0785,-2.0808,-2.0821,-2.0833,-2.0676,-2.0675,-2.0674,0,0,-2.0865,-2.0852,-2.0882,-2.0874,-2.0861,-2.0839,-2.0846,-2.0824,-2.0813,-2.0839,-2.0796,-2.0808,-2.0822,-2.0816,-2.0815,-2.0901,-2.0869,-2.0904,-2.0962,-2.0988,-2.0999,-2.1009,-2.1041,-2.1053,-2.091,-2.091,-2.0911,0,-2.092,-2.094,-2.0902,-2.0922,-2.0923,-2.0871,-2.0901,-2.0896,-2.0885,-2.0887,-2.086,-2.0878,-2.0866,-2.0903,-2.0925,-2.0925,-2.0933,-2.0907,-2.1,-2.101,-2.1018,-2.1049,-2.1061,-2.0915,-2.0914,-2.0914,-2.0914,0,-2.101,-2.1024,-2.105,-2.1042,-2.1045,-2.1071,-2.1037,-2.1045,-2.1019,-2.1,-2.1028,-2.1012,-2.1015,-2.1021,-2.0996,-2.1055,-2.1041,-2.1008,-2.096,-2.1037,-2.1065,-2.1076,-2.0921,-2.092,-2.0919,-2.0917,0,0,-2.1143,-2.1114,-2.1124,-2.112,-2.1102,-2.1113,-2.1137,-2.1139,-2.1148,-2.1142,-2.1162,-2.1176,-2.1145,-2.1144,-2.1118,-2.114,-2.1211,-2.1104,-2.1103,-2.1126,-2.1278,-2.1304,-2.1318,-2.1189,-2.1191,-2.1193,-2.1279,0,-2.1227,-2.1265,-2.1232,-2.1278,-2.1292,-2.1242,-2.1263,-2.1255,-2.1238,-2.1248,-2.1229,-2.124,-2.1198,-2.1198,-2.1217,-2.1199,-2.1241,-2.1191,-2.1209,-2.121,-2.1215,-2.1333,-2.136,-2.1443,-2.129,-2.1292,-2.1293,0,-2.1329,-2.1329,-2.1376,-2.1357,-2.1361,-2.138,-2.1381,-2.139,-2.138,-2.1366,-2.1366,-2.1334,-2.1357,-2.1309,-2.1341,-2.1308,-2.1313,-2.1305,-2.1307,-2.1309,-2.1257,-2.134,-2.1468,-2.1482,-2.131,-2.1308,-2.1307,0,-2.1424,-2.1436,-2.1466,-2.1464,-2.1441,-2.1456,-2.1447,-2.1435,-2.1439,-2.1439,-2.1441,-2.1444,-2.1446,-2.145,-2.142,-2.1388,-2.1456,-2.1406,-2.1447,-2.1448,-2.1465,-2.1465,-2.1599,-2.1465,-2.1465,-2.1465,-2.1465,0,-2.1522,-2.1553,-2.1508,-2.1527,-2.1561,-2.1523,-2.1558,-2.1544,-2.1533,-2.1549,-2.1506,-2.1523,-2.1481,-2.1493,-2.147,-2.1501,-2.1502,-2.1492,-2.1486,-2.1497,-2.1499,-2.1501,-2.1495,-2.1468,-2.1467,-2.1467,-2.1466,0,-2.1635,-2.1605,-2.1635,-2.1612,-2.1606,-2.1633,-2.1613,-2.163,-2.161,-2.1631,-2.1633,-2.1603,-2.1615,-2.1585,-2.1592,-2.1576,-2.1622,-2.1605,-2.1626,-2.1621,-2.1665,-2.1662,-2.1807,-2.1824,-2.1678,-2.168,-2.1681,0,-2.17,-2.1723,-2.1702,-2.1709,-2.1703,-2.1715,-2.1719,-2.1683,-2.1689,-2.168,-2.1698,-2.1707,-2.1712,-2.1733,-2.1712,-2.1718,-2.1703,-2.1753,-2.1703,-2.1714,-2.1706,-2.1706,-2.1709,-2.1764,-2.1766,-2.1767,-2.1768,0,-2.1819,-2.1804,-2.1811,-2.1814,-2.182,-2.182,-2.1817,-2.1826,-2.1787,-2.1796,-2.1808,-2.1812,-2.182,-2.1829,-2.1831,-2.1822,-2.179,-2.1784,-2.1794,-2.1807,-2.1818,-2.1815,-2.1656,-2.1781,-2.178,-2.1779,-2.1778,-2.1778,-2.1911,-2.193,-2.1919,-2.1928,-2.1923,-2.1922,-2.1937,-2.1919,-2.1928,-2.1932,-2.1909,-2.1927,-2.1917,-2.1916,-2.1911,-2.1924,-2.1902,-2.1916,-2.192,-2.1925,-2.1933,-2.1815,-2.1924,-2.1924,-2.1923,-2.1923,-2.1923,0,-2.203,-2.202,-2.203,-2.2028,-2.2036,-2.2004,-2.1999,-2.2009,-2.2024,-2.2018,-2.2024,-2.2039,-2.2048,-2.2028,-2.2034,-2.2049,-2.2034,-2.2052,-2.2052,-2.2051,-2.1952,-2.1943,-2.2064,-2.2064,-2.2064,-2.2064,-2.2064,-2.2064,-2.2093,-2.2124,-2.2108,-2.2136,-2.2126,-2.2142,-2.2143,-2.2142,-2.2137,-2.2155,-2.2163,-2.2149,-2.2138,-2.2144,-2.2151,-2.2145,-2.215,-2.2174,-2.2163,-2.2071,-2.2057,-2.2044,-2.2036,-2.2175,-2.2175,-2.2261,-2.2262,-2.2263]},{"header":{"parameterUnit":"m.s-1","parameterCategory":1,"la1":30.2991,"la2":30.254,"lo1":-89.0895,"lo2":-89.0444,"dy":0.0017,"dx":0.0017,"nx":28,"ny":28,"refTime":"2024-06-11T21:00:00:Z","depth":0,"parameterNumber":3,"parameterNumberName":"V-component_of_WINDS"},"data":[0,0,0,0,0,0,0,0,0,0,0,0,0,0,0,0,0,0,0,0,0,0,0,0,0,0,0,0,0,0,0,0,0,0,0,0,0,0,0,0,0,0,0,0,0,0,0,0,0,0,0,0,0,0,0,0,0,0,-0.7511,-0.7512,0,-0.7565,-0.7566,-0.7567,-0.7594,-0.7594,-0.7594,-0.7594,-0.7651,-0.7652,-0.7654,0,0,0,0,0,0,0,0,0,0,0,0,0,-0.7433,-0.7435,-0.7511,-0.7512,-0.7513,-0.7565,-0.7566,-0.7567,-0.7594,-0.7594,-0.7594,-0.7594,-0.765,-0.7652,-0.7654,0,0,0,0,0,0,0,0,0,0,0,0,0,-0.7475,-0.7435,-0.7511,-0.7532,-0.7535,-0.7565,-0.7566,-0.7567,-0.7594,-0.7594,-0.7594,-0.7594,-0.7649,-0.7652,-0.7654,-0.7668,0,0,-0.7661,-0.7662,0,0,0,0,0,0,0,0,-0.7473,-0.7478,-0.7529,-0.7531,-0.7534,-0.7573,-0.7559,-0.7601,-0.7594,-0.7571,-0.7594,-0.7594,-0.7625,-0.7629,-0.7639,-0.7671,-0.7673,-0.7661,-0.7662,-0.7663,-0.7664,0,0,0,0,0,0,0,-0.747,-0.7476,-0.7533,-0.7529,-0.7532,-0.754,-0.7546,-0.7567,-0.7597,-0.7573,-0.7575,-0.7581,-0.7626,-0.7637,-0.7641,-0.7674,-0.7661,-0.7663,-0.7664,-0.7665,-0.772,-0.772,0,0,0,0,0,0,-0.7463,-0.7473,-0.7531,-0.7534,-0.7503,-0.7541,-0.7548,-0.756,-0.7597,-0.7603,-0.7581,-0.7582,-0.7633,-0.7638,-0.7643,-0.7662,-0.7663,-0.7666,-0.7667,-0.772,-0.772,-0.772,0,0,0,0,0,0,-0.7462,-0.7468,-0.7529,-0.7504,-0.7513,-0.7543,-0.7556,-0.7561,-0.7572,-0.7603,-0.7609,-0.7587,-0.7633,-0.764,-0.7662,-0.7665,-0.7667,-0.7669,-0.772,-0.772,-0.772,-0.7701,0,0,0,0,0,0,-0.7459,-0.7467,-0.7472,-0.7504,-0.7514,-0.7546,-0.7556,-0.7562,-0.7576,-0.7578,-0.761,-0.7615,-0.7634,-0.7658,-0.7664,-0.7668,-0.767,-0.772,-0.772,-0.772,-0.7701,-0.77,-0.7699,0,0,0,0,0,-0.7456,-0.7465,-0.7473,-0.7479,-0.7521,-0.7546,-0.7552,-0.7572,-0.7576,-0.7582,-0.7602,-0.7614,-0.7663,-0.766,-0.7667,-0.7672,-0.772,-0.772,-0.772,-0.7702,-0.77,-0.7699,0,0,0,0,0,0,-0.7433,-0.747,-0.7478,-0.7497,-0.7518,-0.7551,-0.7558,-0.757,-0.7591,-0.7592,-0.7618,-0.7625,-0.7644,-0.766,-0.7656,-0.7687,-0.7693,-0.7694,-0.7676,-0.7675,-0.7674,-0.7671,-0.7672,0,0,0,0,0,-0.743,-0.7447,-0.7478,-0.7492,-0.7502,-0.7528,-0.754,-0.7554,-0.7577,-0.7586,-0.7608,-0.763,-0.7651,-0.7664,-0.7685,-0.7704,-0.7712,-0.771,-0.7709,-0.7708,-0.771,-0.7722,-0.7722,-0.7721,-0.7721,-0.7721,0,0,-0.7424,-0.7446,-0.7455,-0.7488,-0.7506,-0.7524,-0.7536,-0.7554,-0.7567,-0.7589,-0.7611,-0.7628,-0.7655,-0.7675,-0.7686,-0.7689,-0.7711,-0.7709,-0.7708,-0.771,-0.7722,-0.7722,-0.7722,-0.7721,-0.7721,-0.7721,0,0,-0.7423,-0.7441,-0.7455,-0.7472,-0.7499,-0.7517,-0.752,-0.7551,-0.7562,-0.7585,-0.7602,-0.7619,-0.7653,-0.7672,-0.7686,-0.7692,-0.7704,-0.7698,-0.7693,-0.7704,-0.7705,-0.7705,-0.7707,-0.7708,-0.7699,-0.7699,-0.7699,0,-0.7412,-0.7439,-0.746,-0.7478,-0.7492,-0.7512,-0.7527,-0.7543,-0.7576,-0.7585,-0.7589,-0.7633,-0.7653,-0.7678,-0.768,-0.769,-0.7695,-0.7695,-0.7703,-0.7703,-0.7704,-0.7707,-0.7707,-0.7698,-0.7698,-0.7698,-0.7698,0,-0.7425,-0.7443,-0.7452,-0.7482,-0.7497,-0.7513,-0.7538,-0.755,-0.7563,-0.7581,-0.7604,-0.7628,-0.7654,-0.7661,-0.7674,-0.7689,-0.769,-0.7698,-0.7704,-0.7702,-0.7706,-0.7707,-0.7697,-0.7697,-0.7697,-0.7698,0,0,-0.741,-0.7453,-0.7456,-0.747,-0.7501,-0.7516,-0.7533,-0.7559,-0.7569,-0.7591,-0.7607,-0.7636,-0.7643,-0.7659,-0.7674,-0.7684,-0.7688,-0.7691,-0.7692,-0.769,-0.7707,-0.7701,-0.7702,-0.7696,-0.7697,-0.7697,-0.7705,0,-0.7414,-0.7445,-0.7465,-0.7489,-0.7506,-0.7526,-0.7542,-0.7563,-0.758,-0.7597,-0.7616,-0.7637,-0.7645,-0.7654,-0.7665,-0.7685,-0.7692,-0.7685,-0.7712,-0.7713,-0.7705,-0.7704,-0.7698,-0.7704,-0.7706,-0.7706,-0.7706,0,-0.7422,-0.7443,-0.7468,-0.7498,-0.7507,-0.752,-0.7545,-0.7561,-0.7586,-0.7598,-0.7615,-0.7631,-0.7651,-0.7655,-0.7683,-0.7677,-0.769,-0.7701,-0.7702,-0.7706,-0.771,-0.7708,-0.7706,-0.7707,-0.7709,-0.7708,-0.7708,0,-0.741,-0.7444,-0.7464,-0.7476,-0.7511,-0.752,-0.7535,-0.756,-0.7574,-0.7596,-0.7606,-0.763,-0.7643,-0.7661,-0.7683,-0.7684,-0.7709,-0.7715,-0.772,-0.772,-0.7725,-0.7724,-0.7726,-0.7732,-0.7732,-0.7732,-0.7732,0,-0.7412,-0.7426,-0.7459,-0.7471,-0.7489,-0.7512,-0.7529,-0.7546,-0.7568,-0.7584,-0.7603,-0.7618,-0.7645,-0.7664,-0.7681,-0.7702,-0.7708,-0.7718,-0.7723,-0.7717,-0.7716,-0.7726,-0.7726,-0.7732,-0.7732,-0.7732,-0.7732,0,-0.7401,-0.7423,-0.7446,-0.7478,-0.7486,-0.7498,-0.7525,-0.7538,-0.7556,-0.7576,-0.7582,-0.7611,-0.7633,-0.7657,-0.7688,-0.77,-0.772,-0.7726,-0.7712,-0.7714,-0.7718,-0.7718,-0.7726,-0.7729,-0.7733,-0.7733,-0.7733,0,-0.7401,-0.7413,-0.7446,-0.7458,-0.7473,-0.7492,-0.7506,-0.753,-0.7544,-0.7574,-0.7583,-0.7607,-0.7628,-0.7664,-0.7687,-0.7711,-0.7718,-0.772,-0.7722,-0.7716,-0.7719,-0.7718,-0.772,-0.7719,-0.7719,-0.7719,-0.7719,0,-0.7399,-0.741,-0.7429,-0.7453,-0.747,-0.749,-0.7511,-0.752,-0.7547,-0.7563,-0.7586,-0.7602,-0.7634,-0.7658,-0.7685,-0.7701,-0.7715,-0.7718,-0.772,-0.7715,-0.7706,-0.7711,-0.771,-0.7717,-0.7718,-0.7718,-0.7718,-0.7718,-0.7394,-0.7406,-0.7431,-0.7453,-0.7471,-0.749,-0.7504,-0.7523,-0.7543,-0.7571,-0.7583,-0.7607,-0.7632,-0.767,-0.7686,-0.7705,-0.7709,-0.7712,-0.7713,-0.7714,-0.7713,-0.7702,-0.771,-0.771,-0.771,-0.771,-0.771,0,-0.7394,-0.7411,-0.7431,-0.7459,-0.7476,-0.7487,-0.7511,-0.7525,-0.7545,-0.7567,-0.7587,-0.7614,-0.7638,-0.7663,-0.7688,-0.7699,-0.7706,-0.7705,-0.7705,-0.7708,-0.7708,-0.7703,-0.7699,-0.7699,-0.7699,-0.7699,-0.7699,-0.7699,-0.7396,-0.7416,-0.743,-0.746,-0.7477,-0.75,-0.7513,-0.7531,-0.7549,-0.7578,-0.7598,-0.7614,-0.7638,-0.7665,-0.7687,-0.7694,-0.7703,-0.77,-0.7708,-0.7708,-0.7708,-0.7709,-0.7705,-0.7701,-0.7701,-0.7708,-0.7708,-0.7708]}]]